St. Johnsbury, VT

1:55 PM EDT on May 26, 2017 (GMT -0400)
St. Johnsbury

Weather History for K1V4 - April, 2013

Change the Weather History Date:

Saturday, April 27, 2013

  Actual Average Record
Temperature  
Mean Temperature 46 °F 49 °F  
Max Temperature 61 °F 62 °F 88 °F (1990)
Min Temperature 30 °F 37 °F 18 °F (1972)
Degree Days  
Heating Degree Days 19 16  
Month to date heating degree days 657 574  
Since 1 July heating degree days 7189 7374  
Cooling Degree Days 0 0  
Month to date cooling degree days 0 0  
Year to date cooling degree days 0 0  
Moisture  
Dew Point 29 °F    
Average Humidity 57    
Maximum Humidity 92    
Minimum Humidity 22    
Precipitation  
Precipitation 0.00 in 0.10 in 1.05 in (1996)
Month to date precipitation 2.44 2.55  
Year to date precipitation 7.74 9.74  
Sea Level Pressure  
Sea Level Pressure 30.37 in    
Wind  
Wind Speed - (North)    
Max Wind Speed -    
Max Gust Speed -    
T = Trace of Precipitation, MM = Missing Value Source: NWS Daily Summary

Daily Weather History Graph

Daily Weather History Graph

Search for Another Location

Airport or City:

Trip Planner

Search our weather history database for the weather conditions in past years. The results will help you decide how hot, cold, wet, or windy it might be!

Date:

Astronomy

Apr. 27, 2013 Rise Set
Actual Time 5:44 AM EDT 7:47 PM EDT
Civil Twilight 5:12 AM EDT 8:19 PM EDT
Nautical Twilight 4:34 AM EDT 8:58 PM EDT
Astronomical Twilight 3:51 AM EDT 9:41 PM EDT
Moon 10:18 PM EDT (4/27) 6:56 AM EDT (4/27)
Length of Visible Light 15h 06m
Length of Day
14h 03m
Waning Gibbous, 95% of the Moon is Illuminated
Apr 27
Waning Gibbous
May 2
Last Quarter
May 9
New
May 18
First Quarter
May 25
Full

Hourly Weather History & Observations

Time (EDT) Temp. Dew Point Humidity Pressure Visibility Wind Dir Wind Speed Gust Speed Precip Events Conditions
12:54 AM 37.0 °F 33.1 °F 86% 30.44 in - North - - N/A   Unknown
1:54 AM 35.1 °F 30.9 °F 85% 30.44 in - North - - N/A   Unknown
2:54 AM 33.1 °F 30.9 °F 92% 30.44 in - North - - N/A   Unknown
3:54 AM 32.0 °F 28.9 °F 88% 30.44 in - North - - N/A   Unknown
4:54 AM 30.9 °F 28.0 °F 89% 30.44 in - North - - N/A   Unknown
5:54 AM 30.0 °F 28.0 °F 92% 30.44 in - North - - N/A   Unknown
6:54 AM 30.9 °F 28.9 °F 92% 30.45 in - North - - N/A   Unknown
7:54 AM 34.0 °F 30.0 °F 85% 30.45 in - North - - N/A   Unknown
8:54 AM 39.9 °F 33.1 °F 77% 30.44 in - North - - N/A   Unknown
9:54 AM 48.0 °F 34.0 °F 58% 30.42 in - North - - N/A   Unknown
10:54 AM 53.1 °F 30.9 °F 43% 30.41 in - North - - N/A   Unknown
11:54 AM 55.9 °F 30.9 °F 39% 30.39 in - North - - N/A   Unknown
12:54 PM 57.9 °F 28.9 °F 33% 30.36 in - North - - N/A   Unknown
1:54 PM 61.0 °F 28.0 °F 29% 30.33 in - North - - N/A   Unknown
2:54 PM 60.1 °F 23.0 °F 24% 30.32 in - North - - N/A   Unknown
3:54 PM 60.1 °F 21.9 °F 23% 30.30 in - North - - N/A   Unknown
4:54 PM 60.1 °F 24.1 °F 25% 30.29 in - North - - N/A   Unknown
5:54 PM 60.1 °F 23.0 °F 24% 30.29 in - North - - N/A   Unknown
6:54 PM 57.9 °F 26.1 °F 30% 30.29 in - North - - N/A   Unknown
7:54 PM 55.0 °F 30.0 °F 38% 30.29 in - North - - N/A   Unknown
8:54 PM 48.9 °F 32.0 °F 52% 30.30 in - North - - N/A   Unknown
9:54 PM 45.0 °F 32.0 °F 60% 30.31 in - North - - N/A   Unknown
10:54 PM 42.1 °F 32.0 °F 67% 30.31 in - North - - N/A   Unknown
11:54 PM 39.0 °F 32.0 °F 76% 30.32 in - North - - N/A   Unknown